Location: Newark
(41.9364°N, 2.8061°E)
Time: 17:45:24
(UTC+00:00)

X-37B - Pass Details

Date: 11 August 2021
Orbit: 381 x 393 km, 45.0° (Epoch: 29 August)

Event Time Altitude Azimuth Distance (km) Brightness Sun altitude
Exits shadow 01:55:08 16° 70° (ENE) 1,103 3.4 -26.4°
Drops below altitude 10° 01:55:54 10° 75° (ENE) 1,397 4.0 -26.3°
Sets 01:58:01 0° 82° (E) 2,249 5.0 -26.1°
